Overview Statistics Trail Chart Weather Telemetry Raw packets
 

This is the latest recevied weather packets stored in our database for station/object VK4GDW-13. If no packets are shown the sender has not sent any weather packets the latest 10 day(s).

<< 2 3 4 5 6 7 8 >>
Time Temp. Humidity Pressure Rain* Wind** Luminosity Snow
1788131326 20.56° C 54% 1031.2 hPa 0 mm - - -
1788131022 20° C 56% 1031.1 hPa 0 mm - - -
1788130719 19.44° C 58% 1031.3 hPa 0 mm - - -
1788130416 18.89° C 59% 1031.1 hPa 0 mm - - -
1788130113 18.89° C 60% 1031.3 hPa 0 mm - - -
1788129820 18.33° C 60% 1031.2 hPa 0 mm - - -
1788129507 18.33° C 61% 1031.3 hPa 0 mm - - -
1788129204 17.78° C 62% 1031.3 hPa 0 mm - - -
1788128901 17.78° C 62% 1031.3 hPa 0 mm - - -
1788128598 17.22° C 63% 1031.3 hPa 0 mm - - -
1788128294 17.22° C 63% 1031.3 hPa 0 mm - - -
1788127991 16.67° C 64% 1031.3 hPa 0 mm - - -
1788127688 16.67° C 65% 1031.4 hPa 0 mm - - -
1788127385 16.11° C 65% 1031.3 hPa 0 mm - - -
1788127082 16.11° C 66% 1031.2 hPa 0 mm - - -
1788126779 15.56° C 67% 1031.2 hPa 0 mm - - -
1788126476 15.56° C 67% 1031.1 hPa 0 mm - - -
1788126173 15° C 68% 1031.2 hPa 0 mm - - -
1788125870 14.44° C 68% 1031 hPa 0 mm - - -
1788125566 14.44° C 68% 1030.9 hPa 0 mm - - -
1788125263 13.89° C 69% 1030.9 hPa 0 mm - - -
1788124960 13.33° C 69% 1030.8 hPa 0 mm - - -
1788124657 13.33° C 69% 1030.8 hPa 0 mm - - -
1788124354 12.78° C 69% 1030.7 hPa 0 mm - - -
1788124051 12.78° C 69% 1030.8 hPa 0 mm - - -

* Rain since midnight (hover to see other rain measurements)
** Current wind speed in m/s (hover to see current wind gust speed)